When you browse on this site, cookies collect data to enhance your experience and personalize the content and advertising you see.
Visit our Privacy Policy to learn more. By continuing to use the site, you agree to this use of cookies and data.
  • In Belgium
  • List of Countries
  • For 7 days
  • Water Temperature
  • Satellite Maps
  • Weather Map
  • Weather Widgets
  • user-avatar
    Login

    Hourly Weather Molepolole

    Today, 18 July, Thursday

    Time Temperature Precipitation Wind Pressure Humidity
    00:00 +11°C° 0 mm 1 mps 668 mmHg 43%
    01:00 +10°C° 0 mm 1 mps 668 mmHg 45%
    02:00 +10°C° 0 mm 1 mps 668 mmHg 50%
    03:00 +9°C° 0 mm 1 mps 668 mmHg 51%
    04:00 +9°C° 0 mm 1 mps 667 mmHg 52%
    05:00 +8°C° 0 mm 1 mps 667 mmHg 53%
    06:00 +10°C° 0 mm 1 mps 668 mmHg 48%
    07:00 +11°C° 0 mm 1 mps 668 mmHg 43%
    08:00 +14°C° 0 mm 1 mps 669 mmHg 34%
    09:00 +18°C° 0 mm 1 mps 670 mmHg 29%
    10:00 +20°C° 0 mm 1 mps 670 mmHg 24%
    11:00 +23°C° 0 mm 1 mps 671 mmHg 19%
    12:00 +24°C° 0 mm 1 mps 671 mmHg 17%
    13:00 +26°C° 0 mm 1 mps 670 mmHg 15%
    14:00 +25°C° 0 mm 0 mps 669 mmHg 13%
    15:00 +24°C° 0 mm 0 mps 669 mmHg 14%
    16:00 +25°C° 0 mm 1 mps 668 mmHg 15%
    17:00 +24°C° 0 mm 1 mps 667 mmHg 16%
    18:00 +21°C° 0 mm 1 mps 667 mmHg 23%
    19:00 +18°C° 0 mm 1 mps 666 mmHg 30%
    20:00 +13°C° 0 mm 1 mps 666 mmHg 37%
    21:00 +13°C° 0 mm 1 mps 666 mmHg 36%
    22:00 +13°C° 0 mm 1 mps 666 mmHg 35%
    23:00 +12°C° 0 mm 1 mps 666 mmHg 34%

    Tomorrow, 19 July, Friday

    Time Temperature Precipitation Wind Pressure Humidity
    00:00 +12°C° 0 mm 1 mps 666 mmHg 35%
    01:00 +10°C° 0 mm 2 mps 666 mmHg 35%
    02:00 +10°C° 0 mm 2 mps 666 mmHg 35%
    03:00 +10°C° 0 mm 2 mps 665 mmHg 35%
    04:00 +9°C° 0 mm 2 mps 665 mmHg 35%
    05:00 +9°C° 0 mm 2 mps 665 mmHg 35%
    06:00 +10°C° 0 mm 2 mps 666 mmHg 32%
    07:00 +13°C° 0 mm 1 mps 666 mmHg 28%
    08:00 +14°C° 0 mm 1 mps 667 mmHg 25%
    09:00 +17°C° 0 mm 2 mps 668 mmHg 21%
    10:00 +21°C° 0 mm 2 mps 668 mmHg 17%
    11:00 +25°C° 0 mm 2 mps 669 mmHg 12%
    12:00 +26°C° 0 mm 3 mps 669 mmHg 11%
    13:00 +28°C° 0 mm 4 mps 668 mmHg 9%
    14:00 +29°C° 0 mm 4 mps 668 mmHg 7%
    15:00 +28°C° 0 mm 4 mps 667 mmHg 8%
    16:00 +27°C° 0 mm 4 mps 667 mmHg 8%
    17:00 +26°C° 0 mm 4 mps 666 mmHg 8%
    18:00 +22°C° 0 mm 4 mps 666 mmHg 11%
    19:00 +19°C° 0 mm 4 mps 665 mmHg 13%
    20:00 +15°C° 0 mm 4 mps 665 mmHg 16%
    21:00 +14°C° 0 mm 4 mps 665 mmHg 17%
    22:00 +13°C° 0 mm 4 mps 665 mmHg 18%
    23:00 +12°C° 0 mm 4 mps 665 mmHg 19%

    Day after tomorrow, 20 July, Saturday

    Time Temperature Precipitation Wind Pressure Humidity
    00:00 +11°C° 0 mm 4 mps 665 mmHg 20%
    01:00 +11°C° 0 mm 4 mps 665 mmHg 21%
    02:00 +10°C° 0 mm 4 mps 665 mmHg 22%
    03:00 +8°C° 0 mm 4 mps 665 mmHg 26%
    04:00 +7°C° 0 mm 4 mps 665 mmHg 30%
    05:00 +8°C° 0 mm 3 mps 665 mmHg 35%
    06:00 +7°C° 0 mm 4 mps 665 mmHg 39%
    07:00 +8°C° 0 mm 4 mps 666 mmHg 43%
    08:00 +8°C° 0 mm 4 mps 666 mmHg 48%
    09:00 +13°C° 0 mm 4 mps 667 mmHg 39%
    10:00 +16°C° 0 mm 5 mps 668 mmHg 31%
    11:00 +21°C° 0 mm 5 mps 669 mmHg 22%
    12:00 +22°C° 0 mm 5 mps 668 mmHg 19%
    13:00 +23°C° 0 mm 5 mps 668 mmHg 17%
    14:00 +25°C° 0 mm 5 mps 667 mmHg 14%
    15:00 +25°C° 0 mm 4 mps 667 mmHg 14%
    16:00 +23°C° 0 mm 4 mps 667 mmHg 15%
    17:00 +22°C° 0 mm 4 mps 667 mmHg 15%
    18:00 +19°C° 0 mm 3 mps 666 mmHg 20%
    19:00 +16°C° 0 mm 3 mps 666 mmHg 25%
    20:00 +13°C° 0 mm 2 mps 666 mmHg 29%
    21:00 +12°C° 0 mm 2 mps 666 mmHg 30%
    22:00 +10°C° 0 mm 2 mps 666 mmHg 31%
    23:00 +9°C° 0 mm 2 mps 667 mmHg 32%

    21 July, Sunday

    Time Temperature Precipitation Wind Pressure Humidity
    00:00 +8°C° 0 mm 2 mps 666 mmHg 36%
    01:00 +8°C° 0 mm 2 mps 666 mmHg 40%
    02:00 +8°C° 0 mm 1 mps 666 mmHg 44%
    03:00 +7°C° 0 mm 1 mps 666 mmHg 47%
    04:00 +7°C° 0 mm 1 mps 666 mmHg 50%
    05:00 +6°C° 0 mm 1 mps 666 mmHg 53%
    06:00 +6°C° 0 mm 2 mps 667 mmHg 50%
    07:00 +7°C° 0 mm 2 mps 667 mmHg 46%
    08:00 +8°C° 0 mm 3 mps 668 mmHg 43%
    09:00 +10°C° 0 mm 4 mps 669 mmHg 39%
    10:00 +13°C° 0 mm 5 mps 670 mmHg 35%
    11:00 +16°C° 0 mm 5 mps 671 mmHg 31%
    12:00 +17°C° 0 mm 6 mps 670 mmHg 34%
    13:00 +19°C° 0 mm 6 mps 670 mmHg 36%
    14:00 +19°C° 0 mm 6 mps 669 mmHg 39%
    15:00 +19°C° 0 mm 6 mps 669 mmHg 40%
    16:00 +17°C° 0 mm 5 mps 669 mmHg 42%
    17:00 +17°C° 0 mm 5 mps 669 mmHg 43%
    18:00 +14°C° 0 mm 4 mps 669 mmHg 50%
    19:00 +12°C° 0 mm 4 mps 668 mmHg 58%
    20:00 +10°C° 0 mm 3 mps 668 mmHg 65%
    21:00 +9°C° 0 mm 3 mps 669 mmHg 67%
    22:00 +7°C° 0 mm 4 mps 669 mmHg 69%
    23:00 +7°C° 0 mm 4 mps 669 mmHg 72%

    22 July, Monday

    Time Temperature Precipitation Wind Pressure Humidity
    00:00 +6°C° 0 mm 4 mps 669 mmHg 77%
    01:00 +5°C° 0 mm 4 mps 669 mmHg 83%
    02:00 +5°C° 0 mm 3 mps 669 mmHg 88%
    03:00 +4°C° 0 mm 3 mps 668 mmHg 90%
    04:00 +3°C° 0 mm 3 mps 668 mmHg 92%
    05:00 +3°C° 0 mm 3 mps 668 mmHg 94%
    06:00 +3°C° 0 mm 3 mps 668 mmHg 94%
    07:00 +3°C° 0 mm 3 mps 669 mmHg 93%
    08:00 +4°C° 0 mm 3 mps 669 mmHg 92%
    09:00 +7°C° 0 mm 4 mps 669 mmHg 75%
    10:00 +11°C° 0 mm 4 mps 670 mmHg 59%
    11:00 +15°C° 0 mm 4 mps 670 mmHg 42%
    12:00 +18°C° 0 mm 4 mps 670 mmHg 35%
    13:00 +20°C° 0 mm 3 mps 669 mmHg 28%
    14:00 +21°C° 0 mm 3 mps 668 mmHg 21%
    15:00 +21°C° 0 mm 3 mps 668 mmHg 20%
    16:00 +21°C° 0 mm 3 mps 668 mmHg 20%
    17:00 +21°C° 0 mm 2 mps 667 mmHg 19%
    18:00 +18°C° 0 mm 2 mps 667 mmHg 26%
    19:00 +15°C° 0 mm 2 mps 666 mmHg 33%
    20:00 +10°C° 0 mm 2 mps 665 mmHg 39%
    21:00 +10°C° 0 mm 2 mps 665 mmHg 43%
    22:00 +9°C° 0 mm 2 mps 665 mmHg 47%
    23:00 +8°C° 0 mm 2 mps 665 mmHg 50%

    23 July, Tuesday

    Time Temperature Precipitation Wind Pressure Humidity
    00:00 +8°C° 0 mm 1 mps 665 mmHg 54%
    01:00 +7°C° 0 mm 1 mps 665 mmHg 59%
    02:00 +7°C° 0 mm 1 mps 664 mmHg 63%
    03:00 +6°C° 0 mm 1 mps 664 mmHg 65%
    04:00 +6°C° 0 mm 1 mps 664 mmHg 67%
    05:00 +5°C° 0 mm 1 mps 663 mmHg 70%
    06:00 +7°C° 0 mm 1 mps 664 mmHg 64%
    07:00 +7°C° 0 mm 2 mps 665 mmHg 58%
    08:00 +9°C° 0 mm 2 mps 666 mmHg 51%
    09:00 +13°C° 0 mm 3 mps 666 mmHg 42%
    10:00 +18°C° 0 mm 3 mps 667 mmHg 33%
    11:00 +22°C° 0 mm 4 mps 668 mmHg 23%
    12:00 +23°C° 0 mm 4 mps 667 mmHg 20%
    13:00 +26°C° 0 mm 4 mps 666 mmHg 16%
    14:00 +28°C° 0 mm 4 mps 666 mmHg 12%
    15:00 +27°C° 0 mm 4 mps 665 mmHg 13%
    16:00 +26°C° 0 mm 4 mps 665 mmHg 13%
    17:00 +26°C° 0 mm 3 mps 664 mmHg 13%
    18:00 +22°C° 0 mm 3 mps 664 mmHg 16%
    19:00 +19°C° 0 mm 3 mps 664 mmHg 20%
    20:00 +16°C° 0 mm 3 mps 663 mmHg 23%
    21:00 +16°C° 0 mm 3 mps 663 mmHg 24%
    22:00 +14°C° 0 mm 3 mps 663 mmHg 24%
    23:00 +14°C° 0 mm 4 mps 663 mmHg 25%
    Show more